World > North America > United States > Mississippi

Hourly Loyd, MS Regional Weather

Feedback E-mail the Weather

Quick WX

Loyd, MS Weather Maps

°F °C°F °C
Loyd Weather Map
UTC Time: 7/4/2022, 11:54
Your Time:

Loyd, MS Regional Weather

Expires:202207041200;;662865
ASUS44 KJAN 041110
RWRMS 

MISSISSIPPI HOURLY WEATHER ROUNDUP
NATIONAL WEATHER SERVICE JACKSON MS
600 AM CDT MON JUL 04 2022

NOTE: "FAIR: INDICATES FEW OR NO CLOUDS BELOW 12,000 FEET WITH NO
SIGNIFICANT WEATHER AND/OR OBSTRUCTIONS TO VISIBILITY.


MSZ003>006-009-014>017-022>024-029>033-037>039-041200-
NORTHEAST MISSISSIPPI
  
CITY           SKY/WX    TMP DP  RH WIND       PRES   REMARKS
ABERDEEN       FOG       73  73 100 CALM      30.10R VSB 3/4          
COLUMBUS AFB   CLEAR     73  73  99 SE6       30.06R                  
CORINTH        CLEAR     73  73 100 CALM      30.09R FOG              
GOLDN TRIANGLE CLOUDY    75  74  96 SE3       30.10R                  
TUPELO         PTCLDY    77  73  87 SE3       30.09R                  
$$


SKY/WX - Weather  TMP - Temperature  DP - Dew Point  RH - Humidity
WIND - Wind Direction/Speed PRES - Barometric Pressure VSB - Visibility
WCI - Wind Chill Index E13G22 Wind - East Wind 13 mph/Gusts of 22 mph

Trending Headlines

Loyd Radar Loop



Loyd Quick Facts


National Two Day Weather Forecast


E-mail the Loyd Weather Forecast

Voice your opinion or tell us about page issues...